Weather History for K2V5 - April, 2014

Change the Weather History Date:

Sunday, April 6, 2014

  Actual Average (KHEQ) Record (KHEQ)
Temperature  
Mean Temperature 48 °F -  
Max Temperature 65 °F 63 °F 59 °F (2014)
Min Temperature 32 °F 31 °F 35 °F (2014)
Degree Days  
Heating Degree Days 16    
Moisture  
Dew Point 30 °F    
Average Humidity 53    
Maximum Humidity 96    
Minimum Humidity 19    
Precipitation  
Precipitation 0.00 in - - ()
Sea Level Pressure  
Sea Level Pressure 29.84 in    
Wind  
Wind Speed 10 mph (WNW)    
Max Wind Speed 26 mph    
Max Gust Speed 45 mph    
Visibility 10 miles    
Events Thunderstorm    
Averages and records for this station are not official NWS values.
T = Trace of Precipitation, MM = Missing Value Source: NWS Daily Summary

Daily Weather History Graph

Daily Weather History Graph

Search for Another Location

Airport or City:

Trip Planner

Search our weather history database for the weather conditions in past years. The results will help you decide how hot, cold, wet, or windy it might be!

Date:

Astronomy

Apr. 06, 2014 Rise Set
Actual Time 6:24 AM MDT 7:18 PM MDT
Civil Twilight 5:57 AM MDT 7:46 PM MDT
Nautical Twilight 5:24 AM MDT 8:18 PM MDT
Astronomical Twilight 4:50 AM MDT 8:52 PM MDT
Moon 11:27 AM MDT (4/6) 1:16 AM MDT (4/6)
Length of Visible Light 13h 48m
Length of Day
12h 53m
Waxing Crescent, 44% of the Moon is Illuminated
Apr 6
Waxing Crescent
Apr 7
First Quarter
Apr 15
Full
Apr 22
Last Quarter
Apr 29
New

Hourly Weather History & Observations

Time (MDT) Temp. Windchill Dew Point Humidity Pressure Visibility Wind Dir Wind Speed Gust Speed Precip Events Conditions
12:15 AM 42.1 °F 36.1 °F 32.9 °F 70% 29.86 in 10.0 mi SSW 10.4 mph - N/A   Clear
12:35 AM 42.1 °F 37.1 °F 32.9 °F 70% 29.86 in 10.0 mi SW 8.1 mph - N/A   Clear
12:55 AM 40.5 °F 34.6 °F 32.9 °F 74% 29.87 in 10.0 mi SW 9.2 mph - N/A   Clear
1:15 AM 41.9 °F 36.9 °F 33.8 °F 73% 29.87 in 10.0 mi SW 8.1 mph - N/A   Mostly Cloudy
1:35 AM 42.1 °F 35.7 °F 33.8 °F 72% 29.86 in 10.0 mi WSW 11.5 mph - N/A   Overcast
1:55 AM 42.1 °F 36.1 °F 33.4 °F 71% 29.86 in 10.0 mi WSW 10.4 mph - N/A   Mostly Cloudy
2:15 AM 41.9 °F 35.4 °F 33.8 °F 73% 29.85 in 10.0 mi SW 11.5 mph - N/A   Scattered Clouds
2:35 AM 41.4 °F 35.7 °F 34.0 °F 75% 29.85 in 10.0 mi WSW 9.2 mph - N/A   Clear
2:55 AM 41.2 °F 35.0 °F 34.0 °F 76% 29.85 in 10.0 mi SW 10.4 mph - N/A   Clear
3:15 AM 41.0 °F 35.8 °F 34.5 °F 78% 29.85 in 10.0 mi SW 8.1 mph - N/A   Clear
3:35 AM 41.2 °F 34.5 °F 35.1 °F 79% 29.84 in 10.0 mi WSW 11.5 mph - N/A   Clear
3:55 AM 40.6 °F 33.0 °F 34.7 °F 79% 29.83 in 10.0 mi SW 13.8 mph - N/A   Clear
4:15 AM 39.6 °F 33.5 °F 34.5 °F 82% 29.83 in 10.0 mi WSW 9.2 mph - N/A   Clear
4:35 AM 38.8 °F 32.6 °F 34.0 °F 83% 29.83 in 10.0 mi WSW 9.2 mph - N/A   Clear
4:55 AM 36.9 °F 31.4 °F 33.3 °F 87% 29.83 in 10.0 mi WSW 6.9 mph - N/A   Clear
5:15 AM 36.0 °F 30.3 °F 32.9 °F 89% 29.83 in 10.0 mi West 6.9 mph - N/A   Clear
5:35 AM 34.0 °F 29.8 °F 32.0 °F 92% 29.84 in 10.0 mi WSW 4.6 mph - N/A   Clear
6:15 AM 32.9 °F 26.7 °F 31.8 °F 96% 29.85 in 10.0 mi SW 6.9 mph - N/A   Clear
6:35 AM 32.2 °F 26.7 °F 31.1 °F 96% 29.85 in 10.0 mi WSW 5.8 mph - N/A   Clear
6:55 AM 32.0 °F 26.4 °F 30.7 °F 95% 29.85 in 10.0 mi WSW 5.8 mph - N/A   Clear
7:15 AM 32.4 °F 27.9 °F 30.7 °F 94% 29.86 in 10.0 mi WSW 4.6 mph - N/A   Clear
7:35 AM 34.9 °F 30.8 °F 31.8 °F 89% 29.86 in 10.0 mi WSW 4.6 mph - N/A   Clear
7:55 AM 37.8 °F 32.5 °F 32.2 °F 80% 29.86 in 10.0 mi WSW 6.9 mph - N/A   Clear
8:15 AM 44.2 °F 39.2 °F 32.7 °F 64% 29.86 in 10.0 mi WNW 9.2 mph - N/A   Scattered Clouds
8:35 AM 50.2 °F - 32.7 °F 51% 29.86 in 10.0 mi NW 9.2 mph 28.8 mph N/A   Scattered Clouds
8:55 AM 51.1 °F - 32.4 °F 49% 29.85 in 10.0 mi WNW 6.9 mph - N/A   Mostly Cloudy
9:15 AM 52.9 °F - 31.8 °F 45% 29.85 in 10.0 mi NNW 11.5 mph - N/A   Overcast
9:35 AM 54.0 °F - 32.0 °F 43% 29.85 in 10.0 mi NW 12.7 mph - N/A   Mostly Cloudy
9:55 AM 55.2 °F - 30.0 °F 38% 29.85 in 10.0 mi NNW 13.8 mph - N/A   Mostly Cloudy
10:15 AM 59.4 °F - 28.4 °F 31% 29.85 in 10.0 mi NNW 17.3 mph 21.9 mph N/A   Overcast
10:35 AM 61.2 °F - 28.6 °F 29% 29.85 in 10.0 mi NNW 16.1 mph 19.6 mph N/A   Overcast
10:55 AM 61.3 °F - 28.6 °F 29% 29.85 in 10.0 mi North 16.1 mph 21.9 mph N/A   Overcast
11:15 AM 60.8 °F - 29.3 °F 30% 29.85 in 10.0 mi NNW 17.3 mph 20.7 mph N/A   Mostly Cloudy
11:35 AM 58.3 °F - 28.8 °F 33% 29.85 in 10.0 mi NW 10.4 mph - N/A   Mostly Cloudy
11:55 AM 59.0 °F - 27.7 °F 30% 29.84 in 10.0 mi NNW 11.5 mph - N/A   Overcast
12:15 PM 59.9 °F - 25.7 °F 27% 29.84 in 10.0 mi NW 10.4 mph 18.4 mph N/A   Overcast
12:35 PM 62.6 °F - 28.6 °F 28% 29.83 in 10.0 mi North 8.1 mph 21.9 mph N/A   Mostly Cloudy
12:55 PM 60.4 °F - 26.1 °F 27% 29.82 in 10.0 mi NNW 12.7 mph 16.1 mph N/A   Mostly Cloudy
1:15 PM 60.8 °F - 25.5 °F 26% 29.81 in 10.0 mi SW 3.5 mph - N/A   Mostly Cloudy
1:35 PM 60.8 °F - 24.6 °F 25% 29.81 in 10.0 mi Calm Calm - N/A   Overcast
2:15 PM 61.7 °F - 24.4 °F 24% 29.79 in 10.0 mi NW 4.6 mph - N/A   Overcast
2:35 PM 61.0 °F - 23.9 °F 24% 29.79 in 10.0 mi NNW 10.4 mph - N/A   Overcast
2:55 PM 63.7 °F - 25.0 °F 23% 29.78 in 10.0 mi NNW 8.1 mph 44.9 mph N/A   Mostly Cloudy
3:15 PM 61.7 °F - 23.7 °F 23% 29.77 in 10.0 mi NNW 12.7 mph - N/A   Mostly Cloudy
3:35 PM 61.5 °F - 20.7 °F 21% 29.77 in 10.0 mi North 3.5 mph 18.4 mph N/A   Mostly Cloudy
3:55 PM 65.5 °F - 22.3 °F 19% 29.77 in 10.0 mi NNW 11.5 mph 21.9 mph N/A   Mostly Cloudy
4:15 PM 61.5 °F - 23.9 °F 24% 29.77 in 10.0 mi NNW 10.4 mph - N/A   Overcast
4:35 PM 61.2 °F - 20.8 °F 21% 29.77 in 10.0 mi NNW 15.0 mph 18.4 mph N/A   Mostly Cloudy
4:55 PM 58.6 °F - 25.7 °F 28% 29.79 in 10.0 mi NW 21.9 mph 38.0 mph N/A   Mostly Cloudy
5:15 PM 58.3 °F - 26.2 °F 29% 29.79 in 10.0 mi NW 26.5 mph 34.5 mph N/A   Overcast
5:35 PM 58.8 °F - 26.4 °F 29% 29.80 in 10.0 mi NNW 26.5 mph 35.7 mph N/A   Mostly Cloudy
5:55 PM 59.9 °F - 26.8 °F 28% 29.80 in 10.0 mi North 4.6 mph - N/A   Mostly Cloudy
6:15 PM 60.8 °F - 24.8 °F 25% 29.80 in 10.0 mi NW 8.1 mph - N/A   Mostly Cloudy
6:35 PM 59.0 °F - 24.8 °F 27% 29.80 in 10.0 mi NNW 6.9 mph - N/A   Scattered Clouds
6:55 PM 56.8 °F - 24.1 °F 28% 29.80 in 10.0 mi NW 5.8 mph - N/A Thunderstorm Clear
7:15 PM 51.1 °F - 24.4 °F 35% 29.81 in 10.0 mi NNW 6.9 mph - N/A   Clear
7:35 PM 48.6 °F - 25.0 °F 40% 29.81 in 10.0 mi NW 9.2 mph - N/A   Scattered Clouds
7:55 PM 50.5 °F - 27.5 °F 41% 29.83 in 10.0 mi NW 16.1 mph 23.0 mph N/A   Mostly Cloudy
8:15 PM 50.5 °F - 31.1 °F 47% 29.85 in 10.0 mi NNW 18.4 mph 23.0 mph N/A   Scattered Clouds
8:35 PM 48.7 °F - 32.0 °F 52% 29.85 in 10.0 mi NNW 13.8 mph - N/A   Clear
8:55 PM 47.5 °F - 32.4 °F 56% 29.87 in 10.0 mi NNW 12.7 mph - N/A   Mostly Cloudy
9:15 PM 46.4 °F 41.1 °F 33.1 °F 60% 29.88 in 10.0 mi NNW 11.5 mph - N/A   Mostly Cloudy
9:35 PM 44.6 °F 39.2 °F 33.3 °F 64% 29.89 in 10.0 mi North 10.4 mph - N/A   Scattered Clouds
9:55 PM 45.0 °F 39.7 °F 33.3 °F 64% 29.89 in 10.0 mi North 10.4 mph - N/A   Clear
10:15 PM 43.0 °F 38.8 °F 32.9 °F 68% 29.90 in 10.0 mi North 6.9 mph - N/A   Clear
10:35 PM 41.9 °F 38.2 °F 32.2 °F 68% 29.90 in 10.0 mi NNW 5.8 mph - N/A   Clear
10:55 PM 40.6 °F 36.0 °F 32.0 °F 71% 29.90 in 10.0 mi NW 6.9 mph - N/A   Clear
11:15 PM 42.1 °F 37.7 °F 32.4 °F 68% 29.90 in 10.0 mi NNW 6.9 mph - N/A   Mostly Cloudy
11:35 PM 39.6 °F 35.4 °F 32.0 °F 74% 29.90 in 10.0 mi NW 5.8 mph - N/A   Scattered Clouds
11:55 PM 40.1 °F 33.6 °F 32.9 °F 75% 29.90 in 10.0 mi NNW 10.4 mph - N/A   Clear